Weather History for West Plains, MO

Change the Weather History Date:

Friday, November 29, 2013

  Actual Average Record
Temperature  
Mean Temperature 40 °F 41 °F  
Max Temperature 52 °F 51 °F 73 °F (1970)
Min Temperature 27 °F 31 °F 6 °F (1976)
Degree Days  
Heating Degree Days 25 24  
Month to date heating degree days 616 526  
Since 1 July heating degree days 889 829  
Cooling Degree Days 0 0  
Month to date cooling degree days 0 0  
Year to date cooling degree days 1073 1352  
Moisture  
Dew Point 25 °F    
Average Humidity 57    
Maximum Humidity 76    
Minimum Humidity 38    
Precipitation  
Precipitation 0.00 in 0.16 in 1.43 in (2004)
Month to date precipitation 4.50 4.44  
Year to date precipitation 51.89 42.44  
Sea Level Pressure  
Sea Level Pressure 30.47 in    
Wind  
Wind Speed 6 mph (ESE)    
Max Wind Speed 10 mph    
Max Gust Speed 16 mph    
Visibility 10 miles    
Events      
T = Trace of Precipitation, MM = Missing Value Source: NWS Daily Summary

Daily Weather History Graph

Daily Weather History Graph

Search for Another Location

Airport:

Trip Planner

Search our weather history database for the weather conditions in past years. The results will help you decide how hot, cold, wet, or windy it might be!

Date:

Astronomy

Nov. 29, 2013 Rise Set
Actual Time 7:00 AM CST 4:51 PM CST
Civil Twilight 6:31 AM CST 5:20 PM CST
Nautical Twilight 5:59 AM CST 5:52 PM CST
Astronomical Twilight 5:28 AM CST 6:23 PM CST
Moon 3:11 AM CST (11/29) 2:32 PM CST (11/29)
Length of Visible Light 10h 48m
Length of Day
9h 51m
Waning Crescent, 14% of the Moon is Illuminated
Nov 29
Waning Crescent
Dec 2
New
Dec 9
First Quarter
Dec 17
Full
Dec 25
Last Quarter

Hourly Weather History & Observations

Time (CST) Temp. Windchill Dew Point Humidity Pressure Visibility Wind Dir Wind Speed Gust Speed Precip Events Conditions
12:53 AM 32.0 °F 26.4 °F 23.0 °F 69% 30.47 in 10.0 mi NNE 5.8 mph - N/A   Clear
1:53 AM 30.0 °F 24.1 °F 21.9 °F 72% 30.47 in 10.0 mi NNE 5.8 mph - N/A   Clear
2:53 AM 30.0 °F 25.2 °F 21.9 °F 72% 30.49 in 10.0 mi NNE 4.6 mph - N/A   Clear
3:53 AM 30.0 °F 25.2 °F 21.0 °F 69% 30.49 in 10.0 mi NE 4.6 mph - N/A   Clear
4:53 AM 28.9 °F 23.9 °F 21.0 °F 72% 30.51 in 10.0 mi NE 4.6 mph - N/A   Clear
5:53 AM 30.0 °F - 21.0 °F 69% 30.53 in 10.0 mi Calm Calm - N/A   Clear
6:53 AM 28.0 °F 22.8 °F 21.0 °F 75% 30.55 in 10.0 mi ENE 4.6 mph - N/A   Clear
7:53 AM 30.9 °F 27.5 °F 23.0 °F 72% 30.55 in 10.0 mi ENE 3.5 mph - N/A   Clear
8:53 AM 35.1 °F 31.0 °F 23.0 °F 61% 30.56 in 10.0 mi East 4.6 mph - N/A   Clear
9:53 AM 39.0 °F 34.8 °F 25.0 °F 57% 30.56 in 10.0 mi East 5.8 mph - N/A   Clear
10:53 AM 43.0 °F 39.5 °F 25.0 °F 49% 30.54 in 10.0 mi Variable 5.8 mph - N/A   Clear
11:53 AM 46.0 °F 43.1 °F 26.1 °F 46% 30.52 in 10.0 mi SE 5.8 mph - N/A   Clear
12:53 PM 48.9 °F - 26.1 °F 41% 30.49 in 10.0 mi South 5.8 mph - N/A   Clear
1:53 PM 52.0 °F - 28.0 °F 40% 30.46 in 10.0 mi Variable 4.6 mph - N/A   Clear
2:53 PM 51.1 °F - 26.1 °F 38% 30.45 in 10.0 mi SSE 6.9 mph - N/A   Clear
3:53 PM 50.0 °F - 27.0 °F 41% 30.43 in 10.0 mi SSE 8.1 mph - N/A   Clear
4:53 PM 46.9 °F - 27.0 °F 46% 30.42 in 10.0 mi SE 5.8 mph - N/A   Clear
5:53 PM 41.0 °F 38.0 °F 26.1 °F 55% 30.42 in 10.0 mi ESE 4.6 mph - N/A   Clear
6:53 PM 41.0 °F 35.8 °F 28.0 °F 60% 30.43 in 10.0 mi SE 8.1 mph - N/A   Clear
7:53 PM 37.9 °F 33.5 °F 28.9 °F 70% 30.43 in 10.0 mi SE 5.8 mph - N/A   Clear
8:53 PM 37.9 °F 33.5 °F 30.0 °F 73% 30.42 in 10.0 mi SSE 5.8 mph - N/A   Clear
9:53 PM 37.9 °F 31.5 °F 30.9 °F 76% 30.40 in 10.0 mi SSE 9.2 mph - N/A   Clear
10:53 PM 37.0 °F 32.4 °F 30.0 °F 76% 30.40 in 10.0 mi South 5.8 mph - N/A   Clear
11:53 PM 34.0 °F 28.8 °F 28.9 °F 82% 30.39 in 10.0 mi SSE 5.8 mph - N/A   Clear